Location: Marseilles
(40.7010°N, 83.3930°W)
Time: 08:21:41
(UTC-04:00)

Cosmos 1459 Rocket - Visible Passes

Search period start: 28 July 2014 00:00
Search period end: 07 August 2014 00:00
Orbit: 938 x 1000 km, 83.0° (Epoch: 27 July)

Date Brightness Start Highest point End Pass type
(mag) Time Alt. Az. Time Alt. Az. Time Alt. Az.
28 Jul 4.7 00:11:36 10° N 00:17:27 38° ENE 00:17:58 38° E visible
28 Jul 5.1 01:57:03 10° NNW 02:02:30 32° W 02:02:30 32° W visible
29 Jul 4.0 00:34:50 10° N 00:41:08 67° E 00:41:19 66° E visible
29 Jul 5.8 02:21:36 10° NW 02:25:42 18° W 02:25:50 18° W visible
29 Jul 5.7 23:14:43 10° NNE 23:18:48 18° ENE 23:20:09 17° E visible
30 Jul 4.0 00:58:21 10° N 01:04:40 73° W 01:04:40 73° W visible
30 Jul 5.0 23:37:15 10° NNE 23:42:44 30° ENE 23:43:31 29° E visible
31 Jul 4.7 01:22:11 10° NNW 01:28:02 42° W 01:28:02 42° W visible
01 Aug 4.3 00:00:19 10° N 00:06:30 52° ENE 00:06:54 51° E visible
01 Aug 5.5 01:46:25 10° NNW 01:51:18 24° W 01:51:25 24° W visible
01 Aug 5.9 22:40:59 10° NE 22:43:57 13° ENE 22:45:45 12° E visible
02 Aug 3.9 00:23:43 10° N 00:30:06 88° E 00:30:17 85° SSE visible
02 Aug 6.1 02:11:39 10° NW 02:14:23 13° W 02:14:49 13° W visible
02 Aug 5.3 23:03:00 10° NNE 23:07:59 24° ENE 23:09:10 22° E visible
03 Aug 4.4 00:47:24 10° NNW 00:53:34 54° W 00:53:41 54° W visible
03 Aug 4.6 23:25:53 10° N 23:31:50 40° ENE 23:32:34 39° E visible
04 Aug 5.2 01:11:26 10° NNW 01:16:52 31° W 01:17:06 31° W visible
04 Aug 3.9 23:49:09 10° N 23:55:30 70° E 23:56:00 67° ESE visible
05 Aug 5.9 01:36:03 10° NW 01:40:01 18° W 01:40:32 17° W visible
05 Aug 5.6 22:28:55 10° NNE 22:33:12 18° ENE 22:34:55 17° E visible
06 Aug 4.0 00:12:42 10° NNW 00:19:02 70° W 00:19:26 68° WSW visible
06 Aug 4.9 22:51:31 10° NNE 22:57:07 32° ENE 22:58:22 29° E visible
